Location: Absher
(46.5583°N, 107.9840°W)
Time: 06:42:26
(UTC+00:00)

STRAND 1 - Pass Details

Date: 03 April 2023
Orbit: 767 x 779 km, 98.4° (Epoch: 03 June)

Event Time Altitude Azimuth Distance (km) Brightness Sun altitude
Rises 02:20:26 0° 12° (NNE) 3,251 ? -7.3°
Reaches altitude 10° 02:22:45 10° 10° (N) 2,319 ? -7.6°
Maximum altitude 02:27:51 74° 287° (WNW) 804 ? -8.5°
Drops below altitude 10° 02:32:54 10° 203° (SSW) 2,302 ? -9.3°
Sets 02:35:12 0° 202° (SSW) 3,225 ? -9.7°
